Showing default

CHINASAT 2D, 43920

Orbit data source: Space-Track

CHINASAT 2D, 43920 is a payload satellite owned by PLA SSF (CN) in GEO that was launched on Thu, 10 Jan 2019 UTC via a CHANG ZHENG 3B launch vehicle from the Xichang Space Center, China (XSC). Payload-class satellites include a variety of spacecraft equipped with specific instruments for various scientific and technological missions. These include communications satellites like Starlink; space stations such as the ISS; scientific satellites like the Hubble; Earth observation satellites from companies like Planet Labs, Umbra, and HawkEye 360; GPS; miniature CubeSats for education and research; and military/defense satellites.

Not visible in the next 10 days
Identifier
43920, 2019-001A
Orbit
GEO
Country
Flag of CNCN / PRC
Related business
Manufacturer
CAST?
Mission
Operational Defense Communications
Bus & Motor
DFH-4?, DFH-4 LAE
Mass
~5,000 kg wet, ~2,500 kg dry
Launch date (UTC)
2019-01-10 (7 years ago)
Launch vehicle
CHANG ZHENG 3B
Launch site
Xichang Space Center, China (XSC)
Object type
Payload
Rocket body
Debris
Shape & HBR
Box + 2 Pan, 15.0 m
Radar Cross Section
34.063 m², Large (>1 m²)

Expand to show TLE details & history
Last TLE update: 8 hours ago

TLE from 8 hours ago
0 CHINASAT 2D
1 43920U 19001A   25259.25261977 -.00000356  00000-0  00000-0 0  9996
2 43920   0.0472 318.9002 0002610 290.1147 327.3774  1.00269268 51338
Epoch: 2025-09-16T06:03Z
TLE epoch observation values (Epoch: 2025-09-16T06:03:46.348Z)
Latitude
-0.02534°
Longitude
129.98779°
Altitude
35,777.556 km
Speed
3.075 km/s
True Right ascension
14h 25m 30s
True Declination
0° 01' 31"
Sunlit
Object was in daylight at epoch
Visualization orbit readout
Latitude
Unknown
Longitude
Unknown
Altitude
Unknown
Speed
Unknown
Apparent Right ascension
Unknown
Apparent Declination
Unknown
Sunlit
N/A
Visualization observer readout
Local Sidereal Time
06:37:44
Azimuth
Unknown
Elevation
Unknown
Doppler factor
Unknown
Orbital elements
Apogee altitude
35,799.376 km
Perigee altitude
35,777.365 km
Semi-major axis
42,166.508 km
Eccentricity
0.00026
Inclination
0.0472°
RAAN
318.9002°
Arg. of periapsis
290.1147°
True anomaly
327.36127°
Mean anomaly
327.3774°
Eccentric anomaly
327.36934°
Mean motion
0.25066 °/min
Orbital period
1,436.19 mins
BSTAR
0
Loading maneuver chart data...
Computing Atmospheric mass density...
Loading historical data...
Loading historical data...
Loading historical data...
Loading historical data...
Loading historical data...
Loading historical data...
Loading historical data...
Other satellites on launch #1 in the year 2019 (2019-01-10 UTC)

Documentation

Showing up to 5 results
|